EW5526 Weather Reports


time (UTC)temp
F
wind
direction
speed
knots
gust
knots
rain 1hr
in
rain 24hr
in
rain mn
in
humidity
%
barometer
mb
20260504043034 53 74 0.9 1.7 0.00 0.00 0.00 88 1020.2
20260504040033 54 92 2.6 3.5 0.00 0.00 0.00 88 1019.8
20260504033032 54 112 1.7 8.7 0.00 0.00 0.00 88 1020.0
20260504030032 54 94 1.7 6.1 0.00 0.00 0.00 87 1020.0
20260504023031 54 98 3.5 5.2 0.00 0.00 0.00 87 1020.5
20260504020031 55 94 0.9 3.5 0.00 0.00 0.00 87 1020.6
20260504013030 54 92 0.0 1.7 0.00 0.00 0.00 86 1020.5
20260504010029 54 92 0.0 5.2 0.00 0.00 0.00 86 1020.4
20260504000029 54 113 0.0 1.7 0.00 0.00 0.00 84 1020.5
20260503233028 55 117 0.9 1.7 0.00 0.00 0.00 83 1020.8
20260503230028 55 119 3.5 4.3 0.00 0.00 0.00 83 1021.1
20260503223027 55 121 0.0 0.0 0.00 0.00 0.00 83 1021.2
20260503220027 55 121 0.0 0.0 0.00 0.00 0.00 82 1021.2
20260503210025 55 121 0.0 0.0 0.00 0.00 0.00 84 1021.2
20260503203024 56 121 0.0 0.0 0.00 0.00 0.00 82 1021.0
20260503200024 56 121 0.0 0.0 0.00 0.00 0.00 83 1020.8
20260503193024 57 121 0.9 3.5 0.00 0.00 0.00 82 1020.8
20260503190023 57 121 0.9 2.6 0.00 0.00 0.00 81 1020.6
20260503180022 59 123 1.7 4.3 0.00 0.00 0.00 74 1020.4
20260503173052 60 137 2.6 2.6 0.00 0.00 0.00 72 1020.1